contact:dominique.lefevre@mio.osupytheas.fr, maurice.libes@osupytheas.fr, didier.mallarino@osupytheas.fr
Project:EMSO http://www.emso-fr.org/EMSO-France
Depth: 2436.0 m
Title:EMSO Ligure Ouest : Data MII capteur AQUADOPP
Date,Latitude,Longitude,X_East,Y_North,Z_Up,Amplitude_X,Amplitude_Y,Amplitude_Z,Batterie,SoundSpeed,Heading,Pitch,Roll,Pressure,TIS,Speed,Direction
, degrees North, degrees East, m.s-1, m.s-1,m.s-1, 1, 1, 1, Volt, m.s-1, degree, degree, degree, dbar, degree_C, m.s-1, degree
2024-04-05T00:04:03,42.805,6.029,-0.025,-0.001,0.003,108.0,109.0,105.0,13.3,1505.2,1.7,-0.8,1.8,2471.683,13.29,0.025,267.7
2024-04-05T00:07:03,42.805,6.029,-0.029,0.004,-0.023,108.0,107.0,105.0,13.3,1505.2,6.4,-0.8,1.8,2471.666,13.29,0.029,277.8
2024-04-05T00:10:03,42.805,6.029,-0.016,-0.001,-0.009,109.0,109.0,104.0,13.3,1505.2,356.2,-0.7,1.8,2471.666,13.29,0.016,266.4
2024-04-05T00:13:03,42.805,6.029,-0.04,0.016,-0.01,109.0,108.0,106.0,13.3,1505.2,358.8,-0.8,1.8,2471.672,13.29,0.043,291.8
2024-04-05T00:16:03,42.805,6.029,-0.014,0.014,0.0,108.0,107.0,105.0,13.4,1505.2,0.0,-0.8,1.8,2471.691,13.29,0.019,315.0
2024-04-05T00:19:03,42.805,6.029,-0.03,0.005,-0.038,108.0,108.0,105.0,13.4,1505.2,358.3,-0.7,1.8,2471.652,13.29,0.03,279.5
2024-04-05T00:22:03,42.805,6.029,-0.029,0.009,0.002,108.0,108.0,105.0,13.3,1505.2,6.0,-0.7,1.8,2471.67,13.29,0.03,287.2
2024-04-05T00:25:03,42.805,6.029,-0.039,-0.014,-0.004,108.0,107.0,105.0,13.3,1505.2,355.1,-0.8,1.8,2471.669,13.29,0.041,250.3
2024-04-05T00:28:03,42.805,6.029,-0.03,0.001,-0.001,109.0,107.0,105.0,13.4,1505.2,352.0,-0.8,1.8,2471.662,13.29,0.03,271.9
2024-04-05T00:31:03,42.805,6.029,-0.025,-0.003,-0.013,109.0,108.0,105.0,13.3,1505.2,356.9,-0.8,1.8,2471.692,13.29,0.025,263.2
2024-04-05T00:34:03,42.805,6.029,-0.042,-0.003,-0.022,108.0,108.0,105.0,13.3,1505.2,356.5,-0.8,1.8,2471.68,13.29,0.042,265.9
2024-04-05T00:37:03,42.805,6.029,-0.031,-0.002,-0.018,108.0,107.0,105.0,13.3,1505.2,8.9,-0.8,1.8,2471.713,13.29,0.031,266.3
2024-04-05T00:40:03,42.805,6.029,-0.023,0.008,-0.01,107.0,107.0,104.0,13.4,1505.2,352.8,-0.7,1.8,2471.658,13.29,0.024,289.2
2024-04-05T00:43:03,42.805,6.029,-0.033,0.0,0.002,108.0,107.0,106.0,13.3,1505.2,1.7,-0.7,1.8,2471.722,13.29,0.033,270.0
2024-04-05T00:46:03,42.805,6.029,-0.034,-0.013,-0.011,108.0,107.0,105.0,13.4,1505.2,355.2,-0.8,1.8,2471.678,13.29,0.036,249.1
2024-04-05T00:49:03,42.805,6.029,-0.038,0.007,0.005,109.0,109.0,105.0,13.4,1505.2,356.0,-0.7,1.8,2471.695,13.29,0.038,280.4
2024-04-05T00:52:03,42.805,6.029,-0.027,0.011,-0.005,110.0,109.0,104.0,13.4,1505.2,355.6,-0.7,1.8,2471.673,13.29,0.029,292.2
2024-04-05T00:55:03,42.805,6.029,-0.03,0.002,0.0,108.0,108.0,105.0,13.4,1505.2,5.8,-0.7,1.8,2471.689,13.29,0.03,273.8
2024-04-05T00:58:03,42.805,6.029,-0.051,-0.012,0.008,109.0,108.0,105.0,13.3,1505.2,356.0,-0.7,1.9,2471.679,13.29,0.052,256.8
2024-04-05T01:04:03,42.805,6.029,-0.054,0.002,0.01,110.0,110.0,106.0,13.3,1505.2,7.6,-0.7,1.8,2471.716,13.29,0.054,272.1
2024-04-05T01:07:03,42.805,6.029,-0.026,0.017,0.006,110.0,112.0,107.0,13.4,1505.2,6.1,-0.8,1.8,2471.731,13.29,0.031,303.2
2024-04-05T01:10:03,42.805,6.029,-0.038,0.006,-0.02,109.0,108.0,104.0,13.4,1505.2,353.9,-0.7,1.8,2471.721,13.29,0.038,279.0
2024-04-05T01:13:03,42.805,6.029,-0.047,0.004,-0.001,109.0,108.0,104.0,13.3,1505.2,2.4,-0.8,1.8,2471.712,13.29,0.047,274.9
2024-04-05T01:16:03,42.805,6.029,-0.043,0.0,-0.001,109.0,108.0,105.0,13.3,1505.2,7.2,-0.8,1.8,2471.719,13.29,0.043,270.0
2024-04-05T01:19:03,42.805,6.029,-0.013,0.008,-0.003,109.0,108.0,105.0,13.4,1505.2,4.1,-0.8,1.8,2471.712,13.29,0.015,301.6
2024-04-05T01:22:03,42.805,6.029,-0.039,0.035,-0.018,108.0,108.0,104.0,13.3,1505.2,5.9,-0.8,1.8,2471.668,13.29,0.052,311.9
2024-04-05T01:25:03,42.805,6.029,-0.024,-0.001,0.003,109.0,107.0,105.0,13.4,1505.2,351.4,-0.7,1.8,2471.711,13.29,0.024,267.6
2024-04-05T01:28:03,42.805,6.029,-0.036,-0.012,-0.025,109.0,108.0,104.0,13.4,1505.2,0.0,-0.8,1.8,2471.743,13.29,0.037,251.6
2024-04-05T01:31:03,42.805,6.029,-0.017,0.012,-0.002,108.0,108.0,106.0,13.3,1505.2,2.3,-0.7,1.8,2471.715,13.29,0.02,305.2
2024-04-05T01:34:03,42.805,6.029,-0.029,-0.004,0.035,109.0,107.0,106.0,13.3,1505.2,357.8,-0.7,1.8,2471.716,13.29,0.029,262.2
2024-04-05T01:37:03,42.805,6.029,-0.035,0.033,-0.025,108.0,109.0,105.0,13.4,1505.2,4.3,-0.7,1.8,2471.741,13.29,0.048,313.3
2024-04-05T01:40:03,42.805,6.029,-0.036,0.015,0.0,108.0,107.0,105.0,13.3,1505.2,4.2,-0.7,1.8,2471.75,13.29,0.039,292.6
2024-04-05T01:43:03,42.805,6.029,-0.032,-0.013,-0.021,108.0,108.0,105.0,13.4,1505.2,357.1,-0.8,1.8,2471.747,13.29,0.034,247.9
2024-04-05T01:46:03,42.805,6.029,-0.048,0.005,-0.021,109.0,108.0,105.0,13.3,1505.2,9.2,-0.8,1.8,2471.767,13.29,0.048,275.9
2024-04-05T01:49:03,42.805,6.029,-0.03,-0.011,0.002,108.0,108.0,105.0,13.4,1505.2,0.0,-0.8,1.8,2471.77,13.29,0.031,249.9
2024-04-05T01:52:03,42.805,6.029,-0.033,0.006,-0.004,110.0,108.0,104.0,13.4,1505.2,1.8,-0.8,1.8,2471.731,13.29,0.033,280.3
2024-04-05T01:55:03,42.805,6.029,-0.042,0.013,-0.001,109.0,108.0,106.0,13.3,1505.2,2.3,-0.8,1.8,2471.741,13.29,0.043,287.2
2024-04-05T01:58:03,42.805,6.029,-0.022,-0.029,0.0,108.0,108.0,106.0,13.4,1505.2,352.1,-0.8,1.8,2471.744,13.29,0.036,217.2
2024-04-05T02:04:03,42.805,6.029,-0.042,0.012,0.012,108.0,107.0,104.0,13.3,1505.2,6.4,-0.7,1.8,2471.801,13.29,0.043,285.9
2024-04-05T02:07:03,42.805,6.029,-0.037,-0.019,-0.005,108.0,108.0,105.0,13.4,1505.2,357.8,-0.8,1.8,2471.785,13.29,0.041,242.8
2024-04-05T02:10:03,42.805,6.029,-0.044,0.015,-0.003,108.0,106.0,105.0,13.4,1505.2,353.8,-0.8,1.8,2471.751,13.29,0.046,288.8
2024-04-05T02:13:03,42.805,6.029,-0.015,0.004,0.0,108.0,107.0,105.0,13.3,1505.2,357.5,-0.8,1.8,2471.741,13.29,0.015,284.9
2024-04-05T02:16:03,42.805,6.029,-0.034,0.004,-0.008,108.0,108.0,105.0,13.4,1505.2,358.3,-0.8,1.8,2471.776,13.29,0.034,276.7
2024-04-05T02:19:03,42.805,6.029,-0.022,-0.004,0.018,109.0,109.0,105.0,13.3,1505.2,358.8,-0.8,1.8,2471.777,13.29,0.022,259.7
2024-04-05T02:22:03,42.805,6.029,-0.039,0.008,-0.026,108.0,108.0,105.0,13.3,1505.2,6.1,-0.8,1.8,2471.742,13.29,0.039,281.6
2024-04-05T02:25:03,42.805,6.029,-0.024,0.021,0.018,109.0,108.0,106.0,13.3,1505.2,355.7,-0.8,1.8,2471.834,13.29,0.031,311.2
2024-04-05T02:28:03,42.805,6.029,-0.046,0.02,-0.025,109.0,108.0,105.0,13.3,1505.2,8.7,-0.7,1.8,2471.769,13.29,0.05,293.5
2024-04-05T02:31:03,42.805,6.029,-0.039,0.016,-0.017,108.0,108.0,104.0,13.4,1505.2,7.6,-0.7,1.8,2471.744,13.29,0.042,292.3
2024-04-05T02:34:03,42.805,6.029,-0.044,0.007,-0.044,109.0,108.0,105.0,13.3,1505.2,351.4,-0.7,1.9,2471.781,13.29,0.044,279.0
2024-04-05T02:37:03,42.805,6.029,-0.035,-0.005,-0.001,109.0,108.0,105.0,13.3,1505.2,0.5,-0.8,1.8,2471.778,13.29,0.035,261.9
2024-04-05T02:40:03,42.805,6.029,-0.028,0.012,0.003,108.0,107.0,105.0,13.3,1505.2,1.0,-0.7,1.8,2471.77,13.29,0.03,293.2
2024-04-05T02:43:03,42.805,6.029,-0.026,0.012,0.0,109.0,107.0,105.0,13.3,1505.2,9.3,-0.7,1.9,2471.776,13.29,0.028,294.8
2024-04-05T02:46:03,42.805,6.029,-0.002,-0.019,-0.016,110.0,107.0,105.0,13.3,1505.2,351.5,-0.7,1.8,2471.82,13.29,0.019,186.0
2024-04-05T02:49:03,42.805,6.029,-0.029,-0.006,0.015,109.0,108.0,105.0,13.4,1505.2,353.5,-0.7,1.8,2471.787,13.29,0.029,258.3
2024-04-05T02:52:03,42.805,6.029,-0.02,0.001,-0.005,108.0,108.0,105.0,13.3,1505.2,3.3,-0.8,1.8,2471.745,13.29,0.02,272.9
2024-04-05T02:55:03,42.805,6.029,-0.035,-0.011,-0.018,109.0,108.0,106.0,13.3,1505.2,357.1,-0.8,1.9,2471.813,13.29,0.036,252.6
2024-04-05T02:58:03,42.805,6.029,-0.035,0.017,0.0,108.0,107.0,105.0,13.3,1505.2,3.7,-0.7,1.8,2471.774,13.29,0.038,295.9
2024-04-05T03:04:03,42.805,6.029,-0.035,0.013,0.003,108.0,106.0,104.0,13.3,1505.2,358.3,-0.8,1.8,2471.8,13.29,0.037,290.4
2024-04-05T03:07:03,42.805,6.029,-0.009,0.008,-0.003,109.0,107.0,104.0,13.4,1505.2,356.5,-0.8,1.8,2471.833,13.29,0.012,311.6
2024-04-05T03:10:03,42.805,6.029,-0.029,0.0,0.007,108.0,108.0,104.0,13.3,1505.2,7.7,-0.8,1.8,2471.852,13.29,0.028,270.0
2024-04-05T03:13:03,42.805,6.029,-0.027,0.012,-0.016,108.0,108.0,104.0,13.4,1505.2,2.3,-0.8,1.8,2471.801,13.29,0.029,294.0
2024-04-05T03:16:03,42.805,6.029,-0.041,0.019,-0.006,108.0,107.0,104.0,13.4,1505.2,2.1,-0.8,1.8,2471.812,13.29,0.045,294.9
2024-04-05T03:19:03,42.805,6.029,-0.023,0.011,-0.009,109.0,108.0,104.0,13.4,1505.2,6.5,-0.8,1.8,2471.81,13.29,0.025,295.6
2024-04-05T03:22:03,42.805,6.029,-0.006,-0.002,-0.032,110.0,108.0,105.0,13.4,1505.2,5.3,-0.8,1.8,2471.799,13.29,0.006,251.6
2024-04-05T03:25:03,42.805,6.029,-0.025,0.008,0.0,109.0,107.0,105.0,13.4,1505.2,9.4,-0.8,1.8,2471.784,13.29,0.026,287.7
2024-04-05T03:28:03,42.805,6.029,-0.03,0.0,-0.023,109.0,109.0,105.0,13.4,1505.2,352.7,-0.7,1.8,2471.828,13.29,0.03,270.0
2024-04-05T03:31:03,42.805,6.029,-0.041,-0.012,-0.023,110.0,108.0,108.0,13.4,1505.2,1.7,-0.7,1.8,2471.782,13.29,0.042,253.7
2024-04-05T03:34:03,42.805,6.029,-0.014,-0.01,0.001,109.0,109.0,106.0,13.4,1505.2,356.0,-0.8,1.8,2471.801,13.29,0.017,234.5
2024-04-05T03:37:03,42.805,6.029,-0.056,-0.01,0.011,110.0,107.0,104.0,13.3,1505.2,6.0,-0.8,1.8,2471.781,13.29,0.056,259.9
2024-04-05T03:40:03,42.805,6.029,-0.048,-0.026,0.015,108.0,108.0,106.0,13.4,1505.2,356.1,-0.8,1.8,2471.836,13.29,0.054,241.6
2024-04-05T03:43:03,42.805,6.029,-0.022,0.016,-0.006,108.0,107.0,105.0,13.4,1505.2,4.7,-0.8,1.8,2471.821,13.29,0.027,306.0
2024-04-05T03:46:03,42.805,6.029,-0.034,-0.015,0.0,108.0,107.0,105.0,13.4,1505.2,356.5,-0.7,1.8,2471.793,13.29,0.037,246.2
2024-04-05T03:49:03,42.805,6.029,-0.037,0.01,0.0,109.0,108.0,105.0,13.4,1505.2,0.0,-0.8,1.8,2471.837,13.29,0.038,285.1
2024-04-05T03:52:03,42.805,6.029,-0.032,-0.008,-0.005,109.0,107.0,106.0,13.4,1505.2,358.4,-0.8,1.8,2471.772,13.29,0.032,256.0
2024-04-05T03:55:03,42.805,6.029,-0.029,0.007,0.012,109.0,108.0,106.0,13.3,1505.2,0.0,-0.7,1.9,2471.826,13.29,0.029,283.6
2024-04-05T03:58:03,42.805,6.029,-0.03,0.009,0.013,109.0,107.0,104.0,13.4,1505.2,356.5,-0.7,1.8,2471.822,13.29,0.031,286.7
2024-04-05T04:04:03,42.805,6.029,-0.035,-0.017,-0.004,109.0,109.0,104.0,13.4,1505.2,358.2,-0.7,1.8,2471.852,13.29,0.038,244.1
2024-04-05T04:07:03,42.805,6.029,-0.03,-0.005,-0.022,108.0,108.0,106.0,13.4,1505.2,359.4,-0.8,1.8,2471.824,13.29,0.03,260.5
2024-04-05T04:10:03,42.805,6.029,-0.02,0.016,-0.002,109.0,108.0,104.0,13.3,1505.2,5.4,-0.7,1.8,2471.845,13.29,0.025,308.7
2024-04-05T04:13:03,42.805,6.029,-0.034,0.002,-0.012,108.0,107.0,103.0,13.4,1505.2,2.1,-0.8,1.9,2471.872,13.29,0.034,273.4
2024-04-05T04:16:03,42.805,6.029,-0.04,-0.021,-0.016,109.0,108.0,104.0,13.4,1505.2,358.2,-0.8,1.8,2471.864,13.29,0.045,242.3
2024-04-05T04:19:03,42.805,6.029,-0.032,0.004,0.004,108.0,107.0,105.0,13.4,1505.2,2.4,-0.8,1.8,2471.859,13.29,0.032,277.1
2024-04-05T04:22:03,42.805,6.029,-0.034,0.015,-0.012,109.0,108.0,105.0,13.4,1505.2,7.1,-0.8,1.8,2471.846,13.29,0.037,293.8
2024-04-05T04:25:03,42.805,6.029,-0.028,-0.002,-0.013,109.0,109.0,104.0,13.4,1505.2,6.6,-0.8,1.8,2471.813,13.29,0.028,265.9
2024-04-05T04:28:03,42.805,6.029,-0.016,0.003,0.006,110.0,107.0,105.0,13.4,1505.2,358.9,-0.8,1.8,2471.873,13.29,0.016,280.6
2024-04-05T04:31:03,42.805,6.029,-0.036,-0.014,-0.05,108.0,108.0,106.0,13.3,1505.2,5.2,-0.8,1.8,2471.843,13.29,0.038,248.8
2024-04-05T04:34:03,42.805,6.029,-0.039,0.001,-0.012,110.0,108.0,105.0,13.4,1505.2,2.3,-0.8,1.8,2471.876,13.29,0.039,271.5
2024-04-05T04:37:03,42.805,6.029,-0.005,0.027,0.009,108.0,109.0,105.0,13.4,1505.2,1.0,-0.7,1.8,2471.876,13.29,0.027,349.5
2024-04-05T04:40:03,42.805,6.029,-0.017,-0.013,0.0,109.0,107.0,105.0,13.4,1505.2,352.5,-0.8,1.8,2471.858,13.29,0.021,232.6
2024-04-05T04:43:03,42.805,6.029,-0.03,0.005,0.015,109.0,108.0,104.0,13.4,1505.2,5.7,-0.8,1.8,2471.84,13.29,0.03,279.5
2024-04-05T04:46:03,42.805,6.029,-0.047,-0.008,0.0,107.0,107.0,104.0,13.4,1505.2,357.2,-0.8,1.8,2471.861,13.29,0.047,260.3
2024-04-05T04:49:03,42.805,6.029,-0.041,-0.005,-0.005,108.0,108.0,105.0,13.4,1505.2,0.5,-0.7,1.8,2471.867,13.29,0.041,263.0
2024-04-05T04:52:03,42.805,6.029,-0.032,0.005,-0.024,107.0,108.0,104.0,13.4,1505.2,8.1,-0.8,1.8,2471.893,13.29,0.032,278.9
2024-04-05T04:55:03,42.805,6.029,-0.046,0.003,-0.021,108.0,107.0,104.0,13.3,1505.2,358.1,-0.8,1.8,2471.82,13.29,0.046,273.7
2024-04-05T04:58:03,42.805,6.029,-0.017,-0.018,0.0,108.0,108.0,106.0,13.4,1505.2,355.9,-0.7,1.8,2471.858,13.29,0.024,223.4
2024-04-05T05:04:03,42.805,6.029,-0.025,-0.005,0.013,110.0,105.0,104.0,13.4,1505.2,0.0,-0.7,1.8,2471.853,13.29,0.025,258.7
2024-04-05T05:07:03,42.805,6.029,-0.028,0.014,0.015,108.0,108.0,105.0,13.3,1505.2,4.5,-0.8,1.8,2471.834,13.29,0.031,296.6
2024-04-05T05:10:03,42.805,6.029,-0.025,-0.01,0.0,109.0,107.0,104.0,13.3,1505.2,1.1,-0.8,1.8,2471.863,13.29,0.026,248.2
2024-04-05T05:13:03,42.805,6.029,-0.031,-0.007,-0.01,109.0,107.0,105.0,13.3,1505.2,3.4,-0.8,1.8,2471.86,13.29,0.031,257.3
2024-04-05T05:16:03,42.805,6.029,-0.04,-0.006,-0.02,109.0,109.0,104.0,13.4,1505.2,353.8,-0.8,1.8,2471.845,13.29,0.04,261.5
2024-04-05T05:19:05,42.805,6.029,-0.029,0.015,0.021,108.0,108.0,105.0,13.4,1505.2,3.3,-0.8,1.8,2471.853,13.29,0.032,297.4
2024-04-05T05:22:03,42.805,6.029,-0.022,-0.014,0.005,109.0,107.0,106.0,13.4,1505.2,352.1,-0.8,1.8,2471.858,13.29,0.026,237.5
2024-04-05T05:25:03,42.805,6.029,-0.041,-0.002,-0.006,109.0,108.0,107.0,13.4,1505.2,353.0,-0.7,1.8,2471.822,13.29,0.041,267.2
2024-04-05T05:28:03,42.805,6.029,-0.05,-0.023,-0.025,108.0,108.0,104.0,13.3,1505.2,354.6,-0.7,1.8,2471.866,13.29,0.055,245.3
2024-04-05T05:31:03,42.805,6.029,-0.023,0.001,-0.026,109.0,108.0,106.0,13.3,1505.2,4.7,-0.8,1.8,2471.849,13.29,0.023,272.5
2024-04-05T05:34:03,42.805,6.029,-0.049,-0.017,0.013,109.0,108.0,105.0,13.4,1505.2,1.1,-0.8,1.8,2471.893,13.29,0.051,250.9
2024-04-05T05:37:03,42.805,6.029,-0.022,-0.006,-0.031,108.0,108.0,105.0,13.4,1505.2,4.9,-0.8,1.8,2471.858,13.29,0.022,254.7
2024-04-05T05:40:03,42.805,6.029,-0.044,0.008,0.022,109.0,108.0,105.0,13.3,1505.2,353.4,-0.8,1.8,2471.864,13.29,0.044,280.3
2024-04-05T05:43:03,42.805,6.029,-0.032,-0.003,-0.01,109.0,107.0,106.0,13.4,1505.2,2.8,-0.7,1.8,2471.832,13.29,0.032,264.6
2024-04-05T05:46:03,42.805,6.029,-0.021,-0.015,0.021,110.0,109.0,105.0,13.3,1505.2,358.8,-0.7,1.8,2471.836,13.29,0.025,234.5
2024-04-05T05:49:03,42.805,6.029,-0.047,0.008,-0.025,109.0,108.0,103.0,13.4,1505.2,6.4,-0.7,1.8,2471.831,13.29,0.047,279.7
2024-04-05T05:52:03,42.805,6.029,-0.036,0.006,0.009,108.0,107.0,105.0,13.3,1505.2,0.5,-0.8,1.8,2471.822,13.29,0.036,279.5
2024-04-05T05:55:03,42.805,6.029,-0.019,-0.011,-0.007,108.0,107.0,105.0,13.3,1505.2,354.6,-0.7,1.8,2471.838,13.29,0.021,239.9
2024-04-05T05:58:03,42.805,6.029,-0.041,0.002,-0.038,107.0,108.0,105.0,13.3,1505.2,3.4,-0.7,1.8,2471.839,13.29,0.041,272.8
2024-04-05T06:04:03,42.805,6.029,-0.043,0.009,0.034,109.0,108.0,105.0,13.4,1505.2,8.2,-0.8,1.8,2471.875,13.29,0.043,281.8
2024-04-05T06:07:03,42.805,6.029,-0.037,0.001,-0.019,109.0,107.0,105.0,13.4,1505.2,352.1,-0.7,1.8,2471.839,13.29,0.037,271.5
2024-04-05T06:10:03,42.805,6.029,-0.047,-0.018,-0.008,108.0,108.0,105.0,13.4,1505.2,3.0,-0.7,1.8,2471.845,13.29,0.05,249.0
2024-04-05T06:13:03,42.805,6.029,-0.045,-0.008,-0.009,108.0,109.0,104.0,13.4,1505.2,358.2,-0.8,1.8,2471.861,13.29,0.045,259.9
2024-04-05T06:16:03,42.805,6.029,-0.029,0.0,-0.011,110.0,108.0,105.0,13.3,1505.2,355.9,-0.8,1.8,2471.841,13.29,0.028,270.0
2024-04-05T06:19:03,42.805,6.029,-0.028,-0.004,-0.007,109.0,108.0,106.0,13.3,1505.2,358.3,-0.8,1.8,2471.813,13.29,0.028,261.9
2024-04-05T06:22:03,42.805,6.029,-0.033,0.015,-0.041,108.0,110.0,105.0,13.4,1505.2,8.2,-0.7,1.8,2471.824,13.29,0.036,294.4
2024-04-05T06:25:03,42.805,6.029,-0.051,0.013,0.007,108.0,109.0,105.0,13.4,1505.2,0.5,-0.7,1.8,2471.819,13.29,0.052,284.3
2024-04-05T06:28:03,42.805,6.029,-0.028,0.007,0.002,109.0,108.0,104.0,13.3,1505.2,352.5,-0.8,1.8,2471.826,13.29,0.028,284.0
2024-04-05T06:31:03,42.805,6.029,-0.033,-0.006,-0.005,109.0,107.0,107.0,13.4,1505.2,355.9,-0.8,1.8,2471.828,13.29,0.033,259.7
2024-04-05T06:34:03,42.805,6.029,-0.046,-0.002,0.011,109.0,109.0,105.0,13.4,1505.2,355.6,-0.8,1.8,2471.807,13.29,0.046,267.5
2024-04-05T06:37:03,42.805,6.029,-0.048,0.022,-0.005,109.0,107.0,105.0,13.4,1505.2,2.7,-0.8,1.8,2471.809,13.29,0.052,294.6
2024-04-05T06:40:03,42.805,6.029,-0.029,-0.011,0.006,109.0,107.0,105.0,13.3,1505.2,356.5,-0.8,1.8,2471.813,13.29,0.031,249.2
2024-04-05T06:43:03,42.805,6.029,-0.038,0.01,0.0,110.0,108.0,104.0,13.4,1505.2,8.9,-0.8,1.8,2471.817,13.29,0.039,284.7
2024-04-05T06:46:03,42.805,6.029,-0.04,-0.019,-0.022,108.0,107.0,105.0,13.4,1505.2,356.7,-0.8,1.8,2471.796,13.29,0.044,244.6
2024-04-05T06:49:03,42.805,6.029,-0.037,-0.01,0.007,109.0,107.0,105.0,13.4,1505.2,3.0,-0.8,1.8,2471.863,13.29,0.038,254.9
2024-04-05T06:52:03,42.805,6.029,-0.038,0.001,0.014,109.0,108.0,104.0,13.4,1505.2,358.3,-0.8,1.8,2471.816,13.29,0.038,271.5
2024-04-05T06:55:03,42.805,6.029,-0.026,0.011,-0.028,108.0,108.0,105.0,13.3,1505.2,5.3,-0.8,1.8,2471.835,13.29,0.028,292.9
2024-04-05T06:58:03,42.805,6.029,-0.041,0.013,-0.009,109.0,108.0,105.0,13.3,1505.2,8.2,-0.7,1.8,2471.797,13.29,0.043,287.6
2024-04-05T07:04:03,42.805,6.029,-0.046,-0.002,-0.018,109.0,108.0,105.0,13.4,1505.2,354.1,-0.8,1.8,2471.812,13.29,0.046,267.5
2024-04-05T07:07:03,42.805,6.029,-0.038,-0.009,0.009,108.0,107.0,105.0,13.4,1505.2,356.3,-0.8,1.8,2471.802,13.29,0.039,256.7
2024-04-05T07:10:03,42.805,6.029,-0.046,0.019,-0.05,107.0,108.0,106.0,13.4,1505.2,1.0,-0.7,1.8,2471.782,13.29,0.049,292.4
2024-04-05T07:13:03,42.805,6.029,-0.046,0.02,-0.024,108.0,107.0,106.0,13.4,1505.2,8.0,-0.8,1.8,2471.818,13.29,0.05,293.5
2024-04-05T07:16:03,42.805,6.029,-0.066,0.027,-0.018,109.0,107.0,105.0,13.3,1505.2,5.3,-0.8,1.8,2471.832,13.29,0.071,292.2
2024-04-05T07:19:03,42.805,6.029,-0.034,0.019,0.01,109.0,108.0,105.0,13.4,1505.2,351.6,-0.8,1.8,2471.815,13.29,0.038,299.2
2024-04-05T07:22:03,42.805,6.029,-0.042,-0.002,-0.011,109.0,108.0,106.0,13.4,1505.2,2.4,-0.8,1.8,2471.79,13.29,0.042,267.3
2024-04-05T07:25:03,42.805,6.029,-0.046,0.011,0.029,108.0,108.0,105.0,13.4,1505.2,359.4,-0.8,1.8,2471.807,13.29,0.047,283.4
2024-04-05T07:28:03,42.805,6.029,-0.053,0.011,-0.001,108.0,108.0,104.0,13.4,1505.2,7.8,-0.7,1.8,2471.786,13.29,0.054,281.7
2024-04-05T07:31:03,42.805,6.029,-0.054,0.014,-0.02,109.0,109.0,106.0,13.4,1505.2,4.4,-0.7,1.8,2471.852,13.29,0.055,284.5
2024-04-05T07:34:03,42.805,6.029,-0.047,0.017,-0.037,110.0,107.0,105.0,13.3,1505.2,355.7,-0.7,1.8,2471.815,13.29,0.049,289.9
2024-04-05T07:37:03,42.805,6.029,-0.02,0.016,-0.015,109.0,107.0,106.0,13.4,1505.2,4.2,-0.8,1.8,2471.77,13.29,0.025,308.7
2024-04-05T07:40:03,42.805,6.029,-0.052,0.012,0.005,109.0,107.0,106.0,13.4,1505.2,358.8,-0.7,1.8,2471.757,13.29,0.053,283.0
2024-04-05T07:43:03,42.805,6.029,-0.045,-0.007,0.004,109.0,108.0,105.0,13.3,1505.2,6.8,-0.7,1.8,2471.764,13.29,0.045,261.2
2024-04-05T07:46:03,42.805,6.029,-0.036,0.007,-0.037,108.0,108.0,106.0,13.4,1505.2,357.0,-0.7,1.8,2471.795,13.29,0.036,281.0
2024-04-05T07:49:03,42.805,6.029,-0.026,0.005,-0.009,109.0,108.0,104.0,13.4,1505.2,359.4,-0.7,1.8,2471.818,13.29,0.026,280.9
2024-04-05T07:52:03,42.805,6.029,-0.045,0.007,0.011,110.0,109.0,106.0,13.4,1505.2,355.6,-0.8,1.8,2471.794,13.29,0.045,278.8
2024-04-05T07:55:03,42.805,6.029,-0.044,0.012,-0.017,109.0,108.0,106.0,13.4,1505.2,3.0,-0.8,1.8,2471.738,13.29,0.045,285.3
2024-04-05T07:58:03,42.805,6.029,-0.056,0.008,0.004,109.0,108.0,104.0,13.3,1505.2,356.5,-0.8,1.8,2471.785,13.29,0.056,278.1
2024-04-05T08:04:03,42.805,6.029,-0.03,0.014,-0.01,108.0,107.0,104.0,13.3,1505.2,8.2,-0.7,1.8,2471.79,13.29,0.033,295.0
2024-04-05T08:07:03,42.805,6.029,-0.042,0.028,-0.015,108.0,109.0,104.0,13.4,1505.2,353.0,-0.7,1.8,2471.786,13.29,0.05,303.7
2024-04-05T08:10:03,42.805,6.029,-0.038,0.012,-0.033,108.0,108.0,105.0,13.3,1505.2,353.4,-0.8,1.8,2471.791,13.29,0.039,287.5
2024-04-05T08:13:03,42.805,6.029,-0.054,0.013,-0.014,109.0,108.0,107.0,13.3,1505.2,4.1,-0.8,1.8,2471.751,13.29,0.055,283.5
2024-04-05T08:16:03,42.805,6.029,-0.048,0.007,-0.023,108.0,107.0,104.0,13.4,1505.2,3.6,-0.8,1.8,2471.79,13.29,0.048,278.3
2024-04-05T08:19:03,42.805,6.029,-0.047,0.013,-0.011,107.0,108.0,105.0,13.4,1505.2,7.1,-0.8,1.8,2471.75,13.29,0.048,285.5
2024-04-05T08:22:03,42.805,6.029,-0.041,0.01,-0.003,108.0,108.0,105.0,13.4,1505.2,8.9,-0.8,1.8,2471.77,13.29,0.042,283.7
2024-04-05T08:25:03,42.805,6.029,-0.045,0.008,0.007,109.0,107.0,105.0,13.3,1505.2,359.4,-0.7,1.9,2471.779,13.29,0.045,280.1
2024-04-05T08:28:03,42.805,6.029,-0.053,0.0,-0.003,108.0,106.0,104.0,13.4,1505.2,357.1,-0.7,1.8,2471.786,13.29,0.053,270.0
2024-04-05T08:31:03,42.805,6.029,-0.025,0.01,0.016,107.0,107.0,104.0,13.4,1505.2,7.4,-0.7,1.8,2471.747,13.29,0.026,291.8
2024-04-05T08:34:03,42.805,6.029,-0.062,0.011,0.0,108.0,107.0,104.0,13.3,1505.2,353.0,-0.8,1.8,2471.791,13.29,0.062,280.1
2024-04-05T08:37:03,42.805,6.029,-0.053,0.0,0.011,108.0,106.0,104.0,13.3,1505.2,358.7,-0.8,1.8,2471.744,13.29,0.053,270.0
2024-04-05T08:40:03,42.805,6.029,-0.048,0.021,-0.041,108.0,106.0,104.0,13.4,1505.2,8.5,-0.7,1.8,2471.758,13.29,0.052,293.6
2024-04-05T08:43:03,42.805,6.029,-0.047,0.012,-0.03,107.0,107.0,105.0,13.4,1505.2,7.0,-0.8,1.8,2471.783,13.29,0.048,284.3
2024-04-05T08:46:03,42.805,6.029,-0.035,-0.015,-0.002,108.0,106.0,105.0,13.4,1505.2,353.3,-0.7,1.8,2471.702,13.29,0.038,246.8
2024-04-05T08:49:03,42.805,6.029,-0.05,0.005,-0.002,108.0,108.0,104.0,13.3,1505.2,357.1,-0.7,1.9,2471.759,13.29,0.05,275.7
2024-04-05T08:52:03,42.805,6.029,-0.031,0.011,0.001,107.0,106.0,105.0,13.4,1505.2,6.2,-0.7,1.8,2471.697,13.29,0.032,289.5
2024-04-05T08:55:03,42.805,6.029,-0.044,0.007,0.006,108.0,107.0,105.0,13.3,1505.2,352.2,-0.8,1.8,2471.758,13.29,0.044,279.0
2024-04-05T08:58:03,42.805,6.029,-0.049,0.01,0.004,107.0,106.0,104.0,13.3,1505.2,8.9,-0.7,1.8,2471.737,13.29,0.05,281.5
2024-04-05T09:04:03,42.805,6.029,-0.033,0.004,-0.025,107.0,107.0,105.0,13.4,1505.2,6.4,-0.8,1.8,2471.719,13.29,0.033,276.9
2024-04-05T09:07:03,42.805,6.029,-0.058,0.005,0.016,108.0,107.0,105.0,13.4,1505.2,355.6,-0.8,1.8,2471.757,13.29,0.058,274.9
2024-04-05T09:10:03,42.805,6.029,-0.05,0.005,-0.006,107.0,108.0,105.0,13.4,1505.2,358.3,-0.8,1.8,2471.748,13.29,0.05,275.7
2024-04-05T09:13:03,42.805,6.029,-0.048,0.006,-0.014,107.0,108.0,104.0,13.4,1505.2,8.0,-0.8,1.9,2471.743,13.29,0.048,277.1
2024-04-05T09:16:03,42.805,6.029,-0.05,-0.003,0.0,108.0,107.0,104.0,13.3,1505.2,359.4,-0.8,1.8,2471.719,13.29,0.05,266.6
2024-04-05T09:19:03,42.805,6.029,-0.04,-0.011,-0.012,108.0,107.0,105.0,13.3,1505.2,357.1,-0.7,1.8,2471.759,13.29,0.041,254.6
2024-04-05T09:22:03,42.805,6.029,-0.048,0.01,-0.01,108.0,107.0,105.0,13.3,1505.2,1.7,-0.7,1.8,2471.734,13.29,0.049,281.8
2024-04-05T09:25:03,42.805,6.029,-0.042,0.016,0.0,108.0,106.0,104.0,13.4,1505.2,6.0,-0.7,1.8,2471.752,13.29,0.044,290.9
2024-04-05T09:28:03,42.805,6.029,-0.06,0.0,-0.002,108.0,108.0,105.0,13.4,1505.2,357.2,-0.7,1.8,2471.695,13.29,0.06,270.0
2024-04-05T09:31:03,42.805,6.029,-0.054,0.02,-0.011,108.0,108.0,105.0,13.4,1505.2,354.5,-0.8,1.8,2471.731,13.29,0.057,290.3
2024-04-05T09:34:03,42.805,6.029,-0.043,0.005,0.0,107.0,107.0,105.0,13.3,1505.2,2.2,-0.8,1.8,2471.719,13.29,0.043,276.6
2024-04-05T09:37:03,42.805,6.029,-0.049,-0.002,-0.004,107.0,107.0,105.0,13.4,1505.2,6.7,-0.8,1.8,2471.716,13.29,0.049,267.7
2024-04-05T09:40:03,42.805,6.029,-0.058,0.003,0.026,108.0,109.0,105.0,13.4,1505.2,352.7,-0.7,1.8,2471.724,13.29,0.058,273.0
2024-04-05T09:43:03,42.805,6.029,-0.041,0.01,-0.022,108.0,107.0,106.0,13.3,1505.2,2.4,-0.7,1.8,2471.716,13.29,0.042,283.7
2024-04-05T09:46:03,42.805,6.029,-0.066,-0.032,-0.005,109.0,107.0,105.0,13.4,1505.2,356.0,-0.8,1.8,2471.696,13.29,0.073,244.1
2024-04-05T09:49:03,42.805,6.029,-0.041,0.0,0.001,109.0,107.0,106.0,13.4,1505.2,358.9,-0.8,1.8,2471.673,13.29,0.041,270.0
2024-04-05T09:52:03,42.805,6.029,-0.044,-0.004,0.0,109.0,108.0,104.0,13.3,1505.2,358.7,-0.8,1.8,2471.734,13.29,0.044,264.8
2024-04-05T09:55:03,42.805,6.029,-0.049,-0.018,-0.024,109.0,108.0,105.0,13.3,1505.2,4.5,-0.8,1.8,2471.71,13.29,0.052,249.8
2024-04-05T09:58:03,42.805,6.029,-0.049,-0.002,0.012,109.0,106.0,105.0,13.4,1505.2,8.7,-0.8,1.8,2471.676,13.29,0.049,267.7